GW7006 Weather Reports


time (UTC)temp
C
wind
direction
speed
KPH
gust
KPH
rain 1hr
cm
rain 24hr
cm
rain mn
cm
humidity
%
barometer
mb
20260504174504 10 345 0.0 1.6 0.00 0.03 0.00 84 1015.2
20260504173003 10 316 0.0 1.6 0.00 0.03 0.00 85 1015.2
20260504171552 10 110 0.0 1.6 0.00 0.03 0.00 84 1015.2
20260504081515 16 240 0.0 4.8 0.00 0.03 0.03 87 1013.8
20260504044531 18 173 1.6 4.8 0.00 0.03 0.03 79 1013.0
20260504043025 18 166 1.6 4.8 0.00 0.03 0.03 80 1013.2
20260504041511 17 150 0.0 3.2 0.00 0.03 0.03 82 1013.2
20260504040108 17 150 0.0 4.8 0.00 0.03 0.03 82 1013.2
20260504034551 17 174 1.6 6.4 0.00 0.03 0.03 84 1013.4
20260504033033 17 165 0.0 6.4 0.00 0.03 0.03 84 1013.6
20260504031527 17 200 3.2 6.4 0.00 0.03 0.03 84 1013.7
20260504030035 16 238 1.6 4.8 0.00 0.03 0.03 86 1013.9
20260504024519 16 177 0.0 6.4 0.00 0.03 0.03 88 1014.4
20260504023016 15 120 1.6 6.4 0.00 0.03 0.03 89 1014.4
20260504021501 15 171 0.0 4.8 0.00 0.03 0.03 89 1015.1
20260504020050 15 145 0.0 3.2 0.00 0.03 0.03 89 1015.3
20260504014547 15 238 0.0 6.4 0.00 0.03 0.03 89 1015.4
20260504013033 15 288 1.6 4.8 0.00 0.03 0.03 88 1015.5
20260504011522 15 166 1.6 8.0 0.00 0.03 0.03 88 1015.8
20260504010015 15 140 1.6 4.8 0.00 0.03 0.03 88 1016.0
20260504004510 15 127 0.0 4.8 0.00 0.03 0.03 88 1016.1
20260504003059 15 58 0.0 3.2 0.00 0.03 0.03 87 1016.2
20260504001605 15 211 0.0 4.8 0.00 0.03 0.03 86 1016.2
20260504000034 15 271 0.0 3.2 0.00 0.03 0.03 86 1016.1
20260503234522 15 293 0.0 1.6 0.00 0.03 0.03 85 1016.0
20260503233007 15 278 0.0 1.6 0.00 0.03 0.03 85 1015.8
20260503231502 15 278 0.0 0.0 0.00 0.03 0.03 86 1016.0
20260503230059 15 269 0.0 1.6 0.00 0.03 0.03 86 1016.1
20260503224547 15 270 0.0 1.6 0.03 0.03 0.03 82 1016.1
20260503223026 16 246 0.0 1.6 0.03 0.03 0.03 81 1016.0
20260503221511 16 283 0.0 1.6 0.03 0.03 0.03 76 1015.8
20260503220105 17 261 0.0 8.0 0.03 0.03 0.03 72 1015.6
20260503214555 17 279 0.0 1.6 0.00 0.00 0.00 71 1015.7
20260503213052 17 264 0.0 1.6 0.00 0.00 0.00 71 1015.5
20260503211524 17 255 0.0 1.6 0.00 0.00 0.00 73 1015.4
20260503210017 16 250 0.0 1.6 0.00 0.00 0.00 75 1015.3
20260503204513 17 253 0.0 1.6 0.00 0.00 0.00 72 1015.0
20260503203020 17 268 0.0 1.6 0.00 0.00 0.00 71 1015.1
20260503201510 17 331 0.0 1.6 0.00 0.00 0.00 72 1014.9
20260503200005 17 271 0.0 4.8 0.00 0.00 0.00 73 1014.7
20260503194554 16 283 0.0 1.6 0.00 0.00 0.00 77 1014.6
20260503193042 15 283 0.0 0.0 0.00 0.00 0.00 81 1014.4
20260503191548 16 283 0.0 1.6 0.00 0.00 0.00 79 1014.4
20260503190019 16 283 0.0 0.0 0.00 0.00 0.00 79 1014.4
20260503184518 16 261 0.0 1.6 0.00 0.00 0.00 80 1014.5
20260503183015 15 287 0.0 1.6 0.00 0.00 0.00 83 1014.5
20260503181515 14 266 0.0 0.0 0.00 0.00 0.00 88 1014.6
20260503180026 14 266 0.0 1.6 0.00 0.00 0.00 89 1014.6